Location: West Cummington
(42.4920°N, 72.9680°W)
Time: 02:47:59
(UTC-04:00)

ATLAS 2AS CENTAUR R/B - Visible Passes

Search period start: 01 November 2014 00:00
Search period end: 10 November 2014 23:00
Orbit: 917 x 1296 km, 63.7° (Epoch: 19 October)

Date Brightness Start Highest point End Pass type
(mag) Time Alt. Az. Time Alt. Az. Time Alt. Az.
01 Nov 5.2 02:27:47 17° NNE 02:27:47 17° NNE 02:31:29 10° NE visible
01 Nov 4.2 04:15:16 20° NNW 04:20:07 37° NE 04:27:23 10° ESE visible
01 Nov 3.1 06:03:42 10° NW 06:11:43 68° WSW 06:19:28 10° SSE visible
01 Nov 3.9 19:56:30 10° S 19:59:48 26° SSE 19:59:48 26° SSE visible
01 Nov 5.0 21:46:21 10° SW 21:47:21 15° WSW 21:47:21 15° WSW visible
02 Nov 5.6 01:45:10 10° NE 01:45:10 10° NE 01:45:18 10° NE visible
02 Nov 4.6 02:32:40 25° N 02:34:49 28° NNE 02:41:32 10° E visible
02 Nov 3.1 04:20:10 16° NW 04:27:01 85° NE 04:34:54 10° SE visible
02 Nov 3.9 18:13:19 10° SSE 18:17:52 22° ESE 18:17:52 22° ESE visible
02 Nov 3.8 20:01:23 10° SW 20:05:24 38° SW 20:05:24 38° SW visible
03 Nov 4.9 01:50:12 22° NE 01:50:12 22° NE 01:55:25 10° ENE visible
03 Nov 3.4 03:37:43 29° NNW 03:42:08 61° NE 03:49:57 10° SE visible
03 Nov 3.6 05:25:44 10° NW 05:32:50 35° WSW 05:39:42 10° S visible
03 Nov 4.3 17:31:29 10° SE 17:34:21 13° E 17:35:51 12° E visible
03 Nov 2.8 19:16:47 10° SSW 19:23:23 69° SE 19:23:23 69° SE visible
03 Nov 4.9 21:08:55 10° W 21:10:55 18° W 21:10:55 18° W visible
04 Nov 5.4 01:07:54 13° NE 01:07:54 13° NE 01:09:09 10° ENE visible
04 Nov 3.9 02:55:25 40° NNE 02:57:06 44° NE 03:04:38 10° ESE visible
04 Nov 3.2 04:42:57 21° NW 04:48:22 54° WSW 04:55:53 10° S visible
04 Nov 3.1 18:32:38 10° S 18:39:17 46° ESE 18:41:14 39° ENE visible
04 Nov 3.9 20:23:23 10° WSW 20:28:46 41° WNW 20:28:46 41° WNW visible
05 Nov 4.4 02:13:17 31° NE 02:13:17 31° NE 02:18:58 10° E visible
05 Nov 2.9 04:00:49 44° NW 04:03:45 78° WSW 04:11:35 10° SSE visible
05 Nov 4.4 05:48:55 10° WNW 05:53:33 17° WSW 05:58:05 10° SW visible
05 Nov 3.6 17:49:01 10° SSE 17:54:55 30° ESE 17:58:58 18° ENE visible
05 Nov 3.1 19:38:12 10° SW 19:45:20 65° NW 19:46:29 58° N visible
05 Nov 5.2 21:32:15 10° WNW 21:33:59 15° WNW 21:33:59 15° WNW visible
06 Nov 5.2 01:31:16 16° ENE 01:31:16 16° ENE 01:33:01 10° E visible
06 Nov 3.1 03:18:48 74° NE 03:18:59 75° NE 03:26:51 10° SE visible
06 Nov 3.9 05:06:21 22° WNW 05:09:19 27° WSW 05:15:34 10° SSW visible
06 Nov 4.1 17:06:13 10° SE 17:10:42 18° ESE 17:15:25 10° ENE visible
06 Nov 2.8 18:53:23 10° SSW 19:00:31 88° ESE 19:04:03 36° NE visible
06 Nov 4.5 20:46:16 10° W 20:51:33 28° NW 20:51:33 28° NW visible
07 Nov 4.1 02:36:53 38° E 02:36:53 38° E 02:41:45 10° ESE visible
07 Nov 3.3 04:24:26 41° WSW 04:24:57 42° WSW 04:32:08 10° S visible
07 Nov 2.9 18:08:58 10° SSW 18:15:53 60° ESE 18:21:28 19° NE visible
07 Nov 4.0 20:00:33 10° WSW 20:07:18 38° NW 20:08:57 35° NNW visible
07 Nov 5.5 21:56:01 10° NW 21:56:26 11° NW 21:56:26 11° NW visible
08 Nov 5.2 01:55:01 15° ESE 01:55:01 15° ESE 01:56:18 10° ESE visible
08 Nov 3.4 03:42:34 48° S 03:42:34 48° S 03:48:06 10° SSE visible
08 Nov 4.6 05:30:07 12° WSW 05:30:07 12° WSW 05:32:23 10° WSW visible
08 Nov 3.4 17:25:00 10° S 17:31:25 39° ESE 17:38:22 10° NE visible
08 Nov 3.5 19:15:10 10° WSW 19:22:12 53° NW 19:26:13 28° NNE visible
08 Nov 5.0 21:09:49 10° WNW 21:13:42 19° NW 21:13:42 19° NW visible
09 Nov 4.4 03:00:42 26° SSE 03:00:42 26° SSE 03:03:38 10° SSE visible
09 Nov 4.4 04:48:15 18° SW 04:48:15 18° SW 04:51:08 10° SSW visible
09 Nov 3.0 18:30:07 10° SW 18:37:16 75° NW 18:43:23 18° NNE visible
09 Nov 4.6 20:23:43 10° W 20:29:42 25° NNW 20:30:51 24° NNW visible
10 Nov 4.6 04:06:21 17° SSW 04:06:21 17° SSW 04:08:10 10° S visible
10 Nov 2.9 17:45:27 10° SSW 17:52:32 77° ESE 18:00:18 10° NE visible
10 Nov 4.3 19:37:50 10° W 19:44:20 32° NW 19:47:53 23° N visible
10 Nov 5.3 21:33:36 10° NW 21:35:21 14° NNW 21:35:21 14° NNW visible
